| time (UTC) | temp F | wind direction | speed MPH | gust MPH | rain 1hr in | rain 24hr in | rain mn in | humidity % | barometer mb |
| 20260505225242 | 75 | 174 | 1.0 | 2.0 | 0.00 | 0.03 | 0.03 | 45 | 1008.5 |
| 20260505224241 | 75 | 203 | 1.0 | 3.0 | 0.00 | 0.03 | 0.03 | 45 | 1008.4 |
| 20260505223240 | 75 | 186 | 4.0 | 5.0 | 0.00 | 0.03 | 0.03 | 45 | 1008.5 |
| 20260505222239 | 76 | 186 | 1.0 | 1.0 | 0.00 | 0.03 | 0.03 | 44 | 1008.5 |
| 20260505221238 | 76 | 186 | 1.0 | 2.0 | 0.00 | 0.03 | 0.03 | 44 | 1008.4 |
| 20260505220233 | 76 | 199 | 3.0 | 3.0 | 0.00 | 0.03 | 0.03 | 43 | 1008.2 |
| 20260505215228 | 76 | 209 | 5.0 | 7.0 | 0.00 | 0.03 | 0.03 | 43 | 1008.3 |
| 20260505214223 | 76 | 199 | 3.0 | 3.0 | 0.00 | 0.03 | 0.03 | 43 | 1008.4 |
| 20260505213218 | 77 | 182 | 3.0 | 3.0 | 0.00 | 0.03 | 0.03 | 44 | 1008.3 |
| 20260505212217 | 77 | 180 | 3.0 | 5.0 | 0.00 | 0.03 | 0.03 | 42 | 1008.2 |
| 20260505211217 | 78 | 163 | 4.0 | 6.0 | 0.00 | 0.03 | 0.03 | 43 | 1007.9 |
| 20260505210216 | 78 | 206 | 5.0 | 6.0 | 0.00 | 0.03 | 0.03 | 43 | 1008.0 |
| 20260505205212 | 78 | 197 | 4.0 | 5.0 | 0.00 | 0.03 | 0.03 | 43 | 1008.1 |
| 20260505204212 | 78 | 203 | 3.0 | 5.0 | 0.00 | 0.03 | 0.03 | 43 | 1008.2 |
| 20260505203212 | 78 | 168 | 3.0 | 5.0 | 0.00 | 0.03 | 0.03 | 44 | 1008.1 |
| 20260505202209 | 79 | 181 | 2.0 | 3.0 | 0.00 | 0.03 | 0.03 | 40 | 1008.0 |
| 20260505201204 | 79 | 192 | 4.0 | 6.0 | 0.00 | 0.03 | 0.03 | 36 | 1008.0 |
| 20260505200204 | 80 | 141 | 4.0 | 7.0 | 0.00 | 0.03 | 0.03 | 38 | 1008.0 |
| 20260505195203 | 79 | 229 | 5.0 | 7.0 | 0.00 | 0.03 | 0.03 | 37 | 1008.4 |
| 20260505194202 | 80 | 144 | 4.0 | 7.0 | 0.00 | 0.03 | 0.03 | 37 | 1008.4 |
| 20260505193202 | 80 | 199 | 7.0 | 11.0 | 0.00 | 0.03 | 0.03 | 36 | 1008.5 |
| 20260505192157 | 81 | 169 | 6.0 | 10.0 | 0.00 | 0.03 | 0.03 | 36 | 1008.5 |
| 20260505191153 | 80 | 251 | 5.0 | 9.0 | 0.00 | 0.03 | 0.03 | 35 | 1008.7 |
| 20260505190149 | 80 | 123 | 3.0 | 5.0 | 0.00 | 0.03 | 0.03 | 36 | 1008.5 |
| 20260505185148 | 79 | 181 | 6.0 | 7.0 | 0.00 | 0.03 | 0.03 | 38 | 1009.1 |
| 20260505184148 | 80 | 247 | 6.0 | 11.0 | 0.00 | 0.03 | 0.03 | 37 | 1009.1 |
| 20260505183148 | 79 | 189 | 5.0 | 8.0 | 0.00 | 0.03 | 0.03 | 38 | 1009.1 |
| 20260505182147 | 80 | 154 | 8.0 | 14.0 | 0.00 | 0.03 | 0.03 | 37 | 1009.3 |
| 20260505181147 | 80 | 256 | 3.0 | 6.0 | 0.00 | 0.03 | 0.03 | 40 | 1009.2 |
| 20260505180147 | 80 | 187 | 5.0 | 6.0 | 0.00 | 0.03 | 0.03 | 41 | 1009.4 |
| 20260505175145 | 79 | 266 | 5.0 | 7.0 | 0.00 | 0.03 | 0.03 | 43 | 1009.6 |
| 20260505174143 | 79 | 145 | 3.0 | 6.0 | 0.00 | 0.03 | 0.03 | 45 | 1009.6 |
| 20260505173143 | 79 | 179 | 5.0 | 8.0 | 0.00 | 0.03 | 0.03 | 44 | 1009.6 |
| 20260505172143 | 78 | 148 | 5.0 | 7.0 | 0.00 | 0.03 | 0.03 | 47 | 1009.6 |
| 20260505171140 | 78 | 204 | 5.0 | 7.0 | 0.00 | 0.03 | 0.03 | 49 | 1010.0 |
| 20260505170140 | 76 | 158 | 4.0 | 7.0 | 0.00 | 0.03 | 0.03 | 50 | 1010.0 |
| 20260505165137 | 78 | 191 | 3.0 | 3.0 | 0.00 | 0.03 | 0.03 | 48 | 1010.0 |
| 20260505164136 | 78 | 173 | 4.0 | 6.0 | 0.00 | 0.03 | 0.03 | 49 | 1010.1 |
| 20260505163131 | 78 | 204 | 4.0 | 7.0 | 0.00 | 0.03 | 0.03 | 48 | 1010.4 |
| 20260505162126 | 77 | 211 | 5.0 | 6.0 | 0.00 | 0.03 | 0.03 | 50 | 1010.6 |
| 20260505161126 | 76 | 153 | 2.0 | 3.0 | 0.00 | 0.03 | 0.03 | 53 | 1010.6 |
| 20260505160121 | 75 | 248 | 4.0 | 6.0 | 0.00 | 0.03 | 0.03 | 54 | 1010.6 |
| 20260505153112 | 74 | 163 | 3.0 | 3.0 | 0.00 | 0.03 | 0.03 | 58 | 1011.2 |
| 20260505152109 | 74 | 189 | 4.0 | 6.0 | 0.00 | 0.03 | 0.03 | 58 | 1011.2 |
| 20260505151108 | 73 | 198 | 2.0 | 5.0 | 0.00 | 0.03 | 0.03 | 60 | 1011.3 |
| 20260505150107 | 73 | 168 | 0.0 | 1.0 | 0.00 | 0.03 | 0.03 | 64 | 1011.4 |
| 20260505124045 | 63 | 165 | 1.0 | 2.0 | 0.00 | 0.03 | 0.03 | 77 | 1011.7 |
| 20260505123044 | 62 | 134 | 1.0 | 1.0 | 0.00 | 0.03 | 0.03 | 78 | 1011.7 |
| 20260505122044 | 62 | 206 | 1.0 | 1.0 | 0.00 | 0.03 | 0.03 | 78 | 1011.7 |
| 20260505121043 | 62 | 139 | 0.0 | 0.0 | 0.00 | 0.03 | 0.03 | 83 | 1011.9 |
| 20260505120041 | 61 | 196 | 0.0 | 1.0 | 0.00 | 0.03 | 0.03 | 82 | 1012.0 |
| 20260505115039 | 58 | 149 | 0.0 | 0.0 | 0.00 | 0.03 | 0.03 | 89 | 1011.7 |
| 20260505114038 | 56 | 154 | 0.0 | 1.0 | 0.00 | 0.03 | 0.03 | 94 | 1011.6 |
| 20260505113037 | 55 | 152 | 0.0 | 0.0 | 0.00 | 0.03 | 0.03 | 99 | 1011.3 |
| 20260505112032 | 53 | 152 | 0.0 | 0.0 | 0.00 | 0.03 | 0.03 | 99 | 1011.2 |
| 20260505111028 | 51 | 131 | 0.0 | 0.0 | 0.00 | 0.03 | 0.03 | 99 | 1011.3 |
| 20260505102015 | 49 | 117 | 0.0 | 1.0 | 0.00 | 0.03 | 0.03 | 99 | 1011.4 |
| 20260505101015 | 49 | 160 | 0.0 | 0.0 | 0.00 | 0.03 | 0.03 | 99 | 1011.1 |
| 20260505100015 | 49 | 148 | 0.0 | 1.0 | 0.00 | 0.03 | 0.03 | 99 | 1010.9 |
| 20260505095013 | 50 | 129 | 1.0 | 1.0 | 0.00 | 0.03 | 0.03 | 99 | 1010.8 |
| 20260505094012 | 50 | 126 | 0.0 | 1.0 | 0.00 | 0.03 | 0.03 | 99 | 1011.0 |
| 20260505093012 | 51 | 350 | 1.0 | 1.0 | 0.00 | 0.03 | 0.03 | 99 | 1010.7 |
| 20260505092008 | 51 | 359 | 2.0 | 2.0 | 0.05 | 0.03 | 0.03 | 98 | 1010.8 |
| 20260505091002 | 50 | 189 | 1.0 | 1.0 | 0.12 | 0.02 | 0.02 | 96 | 1010.8 |
| 20260505085957 | 51 | 150 | 1.0 | 1.0 | 0.00 | 0.00 | 0.00 | 92 | 1011.3 |
| 20260505084953 | 52 | 249 | 2.0 | 2.0 | 0.00 | 0.00 | 0.00 | 86 | 1011.4 |
| 20260505083949 | 52 | 119 | 0.0 | 0.0 | 0.00 | 0.00 | 0.00 | 82 | 1011.4 |
| 20260505082948 | 51 | 105 | 1.0 | 1.0 | 0.00 | 0.00 | 0.00 | 83 | 1011.1 |
| 20260505081947 | 51 | 109 | 0.0 | 0.0 | 0.00 | 0.00 | 0.00 | 82 | 1011.0 |
| 20260505080946 | 50 | 116 | 0.0 | 0.0 | 0.00 | 0.00 | 0.00 | 84 | 1010.7 |
| 20260505075943 | 51 | 115 | 0.0 | 0.0 | 0.00 | 0.00 | 0.00 | 83 | 1010.6 |
| 20260505074938 | 52 | 18 | 2.0 | 2.0 | 0.00 | 0.00 | 0.00 | 79 | 1010.5 |
| 20260505073938 | 51 | 93 | 1.0 | 1.0 | 0.00 | 0.00 | 0.00 | 80 | 1010.6 |
| 20260505072938 | 51 | 97 | 0.0 | 0.0 | 0.00 | 0.00 | 0.00 | 81 | 1010.7 |
| 20260505071936 | 51 | 96 | 0.0 | 0.0 | 0.00 | 0.00 | 0.00 | 81 | 1010.9 |
| 20260505070936 | 51 | 95 | 1.0 | 1.0 | 0.00 | 0.00 | 0.00 | 83 | 1010.7 |
| 20260505065934 | 52 | 109 | 0.0 | 0.0 | 0.00 | 0.00 | 0.00 | 80 | 1010.7 |
| 20260505064933 | 52 | 123 | 1.0 | 1.0 | 0.00 | 0.00 | 0.00 | 78 | 1010.7 |
| 20260505063929 | 52 | 125 | 0.0 | 0.0 | 0.00 | 0.00 | 0.00 | 77 | 1010.9 |
| 20260505062927 | 52 | 125 | 1.0 | 1.0 | 0.00 | 0.00 | 0.00 | 77 | 1010.8 |
| 20260505061926 | 52 | 126 | 0.0 | 0.0 | 0.00 | 0.00 | 0.00 | 81 | 1011.0 |
| 20260505060922 | 53 | 77 | 1.0 | 1.0 | 0.00 | 0.00 | 0.00 | 78 | 1010.9 |
| 20260505055921 | 52 | 119 | 1.0 | 1.0 | 0.00 | 0.00 | 0.00 | 78 | 1011.0 |
| 20260505054920 | 53 | 120 | 0.0 | 0.0 | 0.00 | 0.00 | 0.00 | 77 | 1010.9 |
| 20260505053915 | 53 | 106 | 1.0 | 1.0 | 0.00 | 0.00 | 0.00 | 75 | 1011.0 |
| 20260505052915 | 53 | 125 | 0.0 | 1.0 | 0.00 | 0.00 | 0.00 | 74 | 1011.1 |
| 20260505051915 | 53 | 56 | 2.0 | 2.0 | 0.00 | 0.00 | 0.00 | 73 | 1010.9 |
| 20260505050910 | 53 | 50 | 1.0 | 1.0 | 0.00 | 0.00 | 0.00 | 75 | 1010.9 |
| 20260505040901 | 54 | 17 | 1.0 | 1.0 | 0.00 | 0.00 | 0.00 | 70 | 1010.4 |
| 20260505035901 | 54 | 332 | 1.0 | 1.0 | 0.00 | 0.00 | 0.00 | 70 | 1010.5 |
| 20260505034900 | 54 | 312 | 0.0 | 0.0 | 0.00 | 0.00 | 0.00 | 70 | 1010.4 |
| 20260505033900 | 55 | 311 | 0.0 | 1.0 | 0.00 | 0.00 | 0.00 | 68 | 1010.6 |
| 20260505032901 | 55 | 312 | 1.0 | 1.0 | 0.00 | 0.00 | 0.00 | 67 | 1010.7 |
| 20260505031859 | 57 | 311 | 0.0 | 0.0 | 0.00 | 0.00 | 0.00 | 65 | 1010.7 |
| 20260505030854 | 59 | 311 | 1.0 | 1.0 | 0.00 | 0.00 | 0.00 | 58 | 1010.7 |
| 20260505025851 | 59 | 201 | 1.0 | 1.0 | 0.00 | 0.00 | 0.00 | 59 | 1010.8 |
| 20260505024847 | 59 | 173 | 0.0 | 0.0 | 0.00 | 0.00 | 0.00 | 59 | 1010.9 |
| 20260505023847 | 59 | 192 | 0.0 | 0.0 | 0.00 | 0.00 | 0.00 | 59 | 1010.9 |
| 20260505022847 | 59 | 153 | 0.0 | 0.0 | 0.00 | 0.00 | 0.00 | 59 | 1010.9 |
| 20260505021847 | 60 | 196 | 0.0 | 0.0 | 0.00 | 0.00 | 0.00 | 58 | 1011.0 |
| 20260505020845 | 59 | 110 | 0.0 | 1.0 | 0.00 | 0.00 | 0.00 | 58 | 1010.8 |
| 20260505015844 | 60 | 158 | 0.0 | 0.0 | 0.00 | 0.00 | 0.00 | 58 | 1010.9 |
| 20260505014844 | 60 | 170 | 0.0 | 0.0 | 0.00 | 0.00 | 0.00 | 58 | 1010.8 |
| 20260505013843 | 60 | 198 | 1.0 | 1.0 | 0.00 | 0.00 | 0.00 | 57 | 1010.8 |
| 20260505012839 | 61 | 177 | 0.0 | 1.0 | 0.00 | 0.00 | 0.00 | 56 | 1010.9 |
| 20260505011838 | 62 | 197 | 0.0 | 1.0 | 0.00 | 0.00 | 0.00 | 55 | 1010.6 |
| 20260505010837 | 62 | 198 | 0.0 | 0.0 | 0.00 | 0.00 | 0.00 | 53 | 1010.6 |
| 20260505005835 | 63 | 171 | 1.0 | 1.0 | 0.00 | 0.00 | 0.00 | 53 | 1010.4 |
| 20260505004830 | 63 | 176 | 0.0 | 1.0 | 0.00 | 0.00 | 0.00 | 53 | 1010.4 |
| 20260505003829 | 64 | 182 | 2.0 | 2.0 | 0.00 | 0.00 | 0.00 | 52 | 1010.0 |
| 20260505002828 | 64 | 141 | 3.0 | 3.0 | 0.00 | 0.00 | 0.00 | 51 | 1010.0 |
| 20260505001823 | 64 | 193 | 1.0 | 1.0 | 0.00 | 0.00 | 0.00 | 51 | 1010.2 |
| 20260505000823 | 65 | 170 | 2.0 | 3.0 | 0.00 | 0.00 | 0.00 | 51 | 1009.9 |
| 20260504235823 | 65 | 168 | 3.0 | 3.0 | 0.00 | 0.00 | 0.00 | 49 | 1009.8 |
| 20260504234822 | 66 | 193 | 3.0 | 5.0 | 0.00 | 0.00 | 0.00 | 48 | 1009.6 |
| 20260504233822 | 66 | 153 | 1.0 | 2.0 | 0.00 | 0.00 | 0.00 | 48 | 1009.7 |
| 20260504232821 | 66 | 199 | 1.0 | 2.0 | 0.00 | 0.00 | 0.00 | 47 | 1009.3 |
| 20260504231821 | 67 | 203 | 1.0 | 2.0 | 0.00 | 0.00 | 0.00 | 48 | 1009.5 |
| 20260504230819 | 67 | 192 | 2.0 | 2.0 | 0.00 | 0.00 | 0.00 | 46 | 1009.2 |